Weather in Lorne

Australia     38°32′06″S   143°58′25″E
temp.,
°C
wind,
m/s
gust,
m/s
humid.,
%
clouds,
%
prec.,
mm/h
press.,
hPa
HPBL,
m
9 march, tue
tue923:00+12sw358982 0.6 1015306
02:00+13sw369046 0.0 1014456
05:00+12wnw239437 0.0 1014145
08:00+13wsw239137 0.1 1016195
11:00+15ssw358468 0.6 1018576
14:00+17ssw456791 0.1 1018834
17:00+18s565859 0.1 1017759
20:00+14ssw477429 0.0 1019469
10 march, wed
wed1023:00+12wsw248815 0.0 1020257
02:00+12wsw23914 0.0 1020179
05:00+12s248815 0.1 1020344
08:00+12s348742 0.1 1021364
11:00+14sse337247 0.1 1022692
14:00+16se336340 0.0 1020647
17:00+15se346620 0.0 1018496
20:00+13se237567 0.0 1019278
11 march, thu
thu1123:00+13se347975 0.0 1020312
02:00+12ese238134 0.0 1019288
05:00+12se128367 0.0 1018216
08:00+13se1284100 0.0 1019223
11:00+17ese226755 0.0 1019400
14:00+18ese326865 0.0 1017405
17:00+17sse337365 0.0 1016314
20:00+15s238215 0.0 1017178
12 march, fri
fri1223:00+14se12858 0.0 1018170
02:00+14wnw118967 0.0 101741
05:00+15nw117582 0.0 101634
08:00+15nnw117498 0.0 101650
11:00+22nne245567 0.0 1015327
14:00+26nne144180 0.0 10131538
17:00+26ene154190 0.0 10111662
20:00+20ene3365100 0.0 101035
13 march, sat
sat1323:00+20nw3355100 0.0 100950
02:00+20wnw2255100 0.0 100727
05:00+19nnw31256100 0.0 1005399
08:00+21nnw5165195 0.0 1003616
11:00+23nw7154398 0.0 10041389
14:00+17wsw51186100 2.0 1008943
17:00+16sw61164100 2.3 10101474
20:00+12wsw5117357 0.6 10141254